Regional Weather Roundup
Issued by NWS

Home | Current Version | Previous Version | Graphics & Text | Print | Product List | Glossary On
Versions: 1 2 3 4 5 6 7 8 9 10 11 12 13 14 15 16 17 18 19 20 21 22 23 24 25 26 27 28 29 30 31 32 33 34 35 36 37 38 39 40 41 42 43 44 45 46 47 48 49 50
000
ASUS43 KMKX 210511
RWRWI

WISCONSIN REGIONAL WEATHER ROUNDUP
NATIONAL WEATHER SERVICE MILWAUKEE/SULLIVAN WI
1200 AM CDT SAT OCT 21 2017

NOTE: "FAIR" INDICATES FEW OR NO CLOUDS BELOW 12,000 FEET WITH NO
SIGNIFICANT WEATHER AND/OR OBSTRUCTIONS TO VISIBILITY.

WIZ001-002-006>008-014>016-023>028-210600-
NORTHWEST WISCONSIN

CITY           SKY/WX    TMP DP  RH WIND       PRES   REMARKS
SUPERIOR ARPT  PTCLDY    64  45  51 S7        29.71F
ASHLAND        MOCLDY    69  44  40 S14G24    29.76S
HAYWARD        CLOUDY    65  45  48 S12       29.79S
SIREN          PTCLDY    65  45  47 S13G23    29.76R
CUMBERLAND     PTCLDY    61  43  51 S14       29.79S
RICE LAKE      PTCLDY    62  45  52 SE6       29.81S
CHETEK         PTCLDY    60  47  61 SE8       29.82R
LADYSMITH      CLOUDY    62  46  56 SE8       29.85S
EAU CLAIRE     CLOUDY    66  42  41 S14       29.82R
MENOMONIE      PTCLDY    66  45  46 S17       29.80S
NEW RICHMOND   CLOUDY    64  47  54 S14G23    29.77S
OSCEOLA        CLOUDY    65  48  53 S10       29.78S
$$

WIZ003>005-009-010-017-018-210600-
NORTH CENTRAL WISCONSIN

CITY           SKY/WX    TMP DP  RH WIND       PRES   REMARKS
MANITOWISH WTR PTCLDY    60  44  55 S9        29.86S
ARBOR VITAE    CLOUDY    63  45  51 S14G20    29.88S
WOODRUFF       CLOUDY    63  45  51 S14G20    29.88S
RHINELANDER    CLOUDY    62  45  53 S12G20    29.91R
EAGLE RIVER    PTCLDY    61  42  49 S6        29.90S
LAND O LAKES   PTCLDY    62  43  50 S7        29.90F
PHILLIPS       CLOUDY    63  45  53 S15G21    29.85S
TOMAHAWK       PTCLDY    59  44  57 S3        29.89F
MEDFORD        PTCLDY    59  45  60 S9        29.88S
MERRILL        CLOUDY    63  46  54 S8        29.91S
$$

WIZ029-030-035-036-043>047-210600-
CENTRAL WISCONSIN

CITY           SKY/WX    TMP DP  RH WIND       PRES   REMARKS
WAUSAU         PTCLDY    63  46  54 S13       29.90R
MOSINEE        MOCLDY    61  46  59 S12G17    29.92S
MARSHFIELD     CLOUDY    61  44  53 S8        29.89S
STEVENS POINT  CLOUDY    63  45  51 S10       29.93S
WAUPACA        CLOUDY    63  49  59 S6        29.94S
WAUTOMA        MOCLDY    65  47  52 S9        29.95R
WISC RAPIDS    CLOUDY    66  46  48 S8        29.92S
CAMP DOUGLAS   NOT AVBL
$$

WIZ011>013-019>022-031-037>040-048>050-210600-
NORTHEAST WISCONSIN

CITY           SKY/WX    TMP DP  RH WIND       PRES   REMARKS
ANTIGO         CLOUDY    54  44  69 S7        29.93F
SHAWANO        CLOUDY    65  49  56 S5        29.94S
OCONTO         MOCLDY    61  50  68 S5        29.94F
STURGEON BAY   CLOUDY    60  51  72 S12       29.98R
GREEN BAY      CLOUDY    61  51  70 S8        29.96S
MANITOWOC      CLOUDY    56  51  84 S5        29.99S
APPLETON       CLOUDY    64  43  45 S14       29.95R
CLINTONVILLE   NOT AVBL
OSHKOSH        CLOUDY    64  49  57 S17       29.95S
$$

WIZ032>034-041-042-053>061-210600-
SOUTHWEST WISCONSIN

CITY           SKY/WX    TMP DP  RH WIND       PRES   REMARKS
LA CROSSE      CLOUDY    67  46  47 S18       29.86S
SPARTA         CLOUDY    67  45  44 S13G20    29.90S
VIROQUA        CLOUDY    64  46  52 S12G20    29.91F
BOSCOBEL       MOCLDY    68  45  43 S7        29.92F
PRAIRIE DU CHI MOCLDY    66  45  45 S5        29.90S
PLATTEVILLE    CLOUDY    64  47  53 S14       29.96S
$$

WIZ056-057-062-063-064-067-068-210600-
SOUTH CENTRAL WISCONSIN

CITY           SKY/WX    TMP DP  RH WIND       PRES   REMARKS
REEDSBURG      CLOUDY    66  45  47 S15G21    29.94R
BARABOO/DELLS  CLOUDY    66  42  41 S15G24    29.94S
LONE ROCK      CLOUDY    68  46  45 S13       29.94S
MINERAL POINT  CLOUDY    66  45  45 S12G20    29.96S
MADISON        CLOUDY    65  45  48 S9        29.98R
MIDDLETON      CLOUDY    66  45  46 S14G20    29.97S
WATERTOWN      MOCLDY    63  47  56 S9        29.99S
MONROE         PTCLDY    63  43  48 S14G22    29.99R
JANESVILLE     PTCLDY    66  45  45 S15G22    30.00S
$$

WIZ051-052-058>065-066-070>072-210600-
SOUTHEAST WISCONSIN

CITY           SKY/WX    TMP DP  RH WIND       PRES   REMARKS
MILWAUKEE      CLOUDY    67  47  48 S13       30.03R
WAUKESHA       MOCLDY    63  45  51 S8        30.03S
MILWAUKEE/TIMM CLOUDY    64  43  45 S10G17    30.02S
RACINE         CLOUDY    66  48  52 S10       30.04S
BURLINGTON     CLOUDY    64  49  57 S10       30.02F
KENOSHA        CLOUDY    65  47  52 S10       30.03F
FOND DU LAC    CLOUDY    67  44  43 S16G24    29.97S
SHEBOYGAN      PTCLDY    59  51  75 S8        29.99S
WEST BEND      MOCLDY    64  45  48 S12G17    30.00S
JUNEAU         MOCLDY    63  46  55 S12G17    30.00S
$$

LSZ147-162-210600-
LAKE SUPERIOR

STATION/POSITION TIME  TEMP    WIND        PRES    WAVE
                       AIR SEA DIR/SP/G            HT/PER
                 (UTC) (F)     (DEG/KT/KT) (MB)    (FT/S)
W MID LAKE BUOY  0450   59 52              1008.3F   1/ 3
DEVILS ISLAND    0500   66     180/ 10/ 13 1007.6F
PORT WING        0340          180/ 13/ 18 1007.1
SAXON HARBOR     0440   69     190/ 11/ 17 1007.5F
$$

LMZ867-665-643>646-210600-
LAKE MICHIGAN

STATION/POSITION TIME  TEMP    WIND        PRES    WAVE
                       AIR SEA DIR/SP/G            HT/PER
                 (UTC) (F)     (DEG/KT/KT) (MB)    (FT/S)
S GREEN BAY BUOY 0430   63 58  180/ 12/ 16 1014.1R
N MID LAKE BUOY  0450   63 58  180/ 19/ 21 1015.3R   5/ 6
NORTHPORT PIER   0440   60     180/  6/ 11 1014.9R
KEWAUNEE LAKESHO 0442   55     180/ 10/ 11 1014.4S
SHEBOYGAN LAKESH 0500   59     180/ 16/ 16 1015.4S
PORT WASHINGTON  0430   56     190/  5/  7 1016.9S
ATWATER BUOY     0309   57 53  170/ 10/ 12 1016.3R
MILWAUKEE LAKESH 0450   67     200/ 15/ 17   N/A
S MID LAKE BUOY  0350   64 61  170/ 16/ 17 1017.6R   2/ 3
KENOSHA   LAKESH 0500   67     200/ 11/ 18 1016.6
$$

TC  - TEMPERATURE IN CELSIUS
VSB - VISIBILITY IN STATUTE MILES
WCI - WIND CHILL INDEX
HX  - HEAT INDEX





USA.gov is the U.S. government's official web portal to all federal, state and local government web resources and services.